013  
ASUS45 KBOI 202310  
RWRID  
 
IDAHO REGIONAL WEATHER ROUNDUP  
NATIONAL WEATHER SERVICE BOISE ID  
400 PM MST TUE FEB 20 2018  
 
NOTE: "FAIR" INDICATES FEW OR NO CLOUDS BELOW 12000 FEET  
WITH NO SIGNIFICANT WEATHER AND/OR S TO VISIBILITY
 
 
IDZ012-014-210000-  
SOUTHWEST IDAHO  
 
 
CITY SKY/WX TMP DP RH WIND PRES REMARKS
 
BOISE FAIR 27 1 32 N5 30.15S WCI 22  
CALDWELL FAIR 30 5 34 N7 30.17S WCI 23  
MOUNTAIN HOME FAIR 26 2 34 NW3 30.14F  

 
 
IDZ016-017-210000-  
SOUTHCENTRAL IDAHO  
 
 
CITY SKY/WX TMP DP RH WIND PRES REMARKS
 
BURLEY FAIR 19 4 51 W8 30.09S WCI 9  
JEROME FAIR 24 -3 30 W13 30.10R WCI 12  
TWIN FALLS FAIR 21 4 47 W3 30.09S  

 
 
IDZ019>023-210000-  
SOUTHEAST IDAHO  
 
 
CITY SKY/WX TMP DP RH WIND PRES REMARKS
 
IDAHO FALLS CLOUDY 15 7 70 SW15G21 30.07R WCI 0  
POCATELLO FAIR 17 6 62 W17 30.10R WCI 1  
REXBURG CLOUDY 14 5 67 SW14G23 30.05R WCI -1  

 
 
IDZ006-010-011-018-031-032-210000-  
CENTRAL IDAHO MOUNTAINS  
 
 
CITY SKY/WX TMP DP RH WIND PRES REMARKS
 
MCCALL CLOUDY 11 -2 56 CALM 29.98R  
HAILEY PTSUNNY 16 7 67 SE10 30.01R WCI 3  
STANLEY N/A 14 -7 38 N5 29.87S WCI 6  
SALMON FAIR 26 3 37 CALM 30.02R  
CHALLIS FAIR 25 -3 29 E5 29.91R WCI 19  

 
 
IDZ002-004-006-007-026-210000-  
NORTHERN IDAHO  
 
 
CITY SKY/WX TMP DP RH WIND PRES REMARKS
 
LEWISTON CLOUDY 28 9 44 E9 30.20F WCI 19  
LOWELL N/A 28 9 44 CALM 30.23S  
COEUR D'ALENE CLOUDY 23 9 55 CALM 30.17R  
MULLAN PASS LGT SNOW 3 -1 83 CALM 29.87R FOG  

 
 
 
CLICK HERE TO GO TO PREVIOUS BULLETINS.

The Nexlab ID Page Main Text Page